This is the latest recevied weather packets stored in our database for station/object K1FFK-1. If no packets are shown the sender has not sent any weather packets the latest 10 day(s).
| Time | Temp. | Humidity | Pressure | Rain* | Wind** | Luminosity | Snow |
|---|---|---|---|---|---|---|---|
| 1778121697 | 2.78° C | 98% | 1009.9 hPa | 0 mm | - | - | - |
| 1778121097 | 2.78° C | 98% | 1009.7 hPa | 0 mm | - | - | - |
| 1778120494 | 2.78° C | 98% | 1009.9 hPa | 0 mm | - | - | - |
| 1778119895 | 2.78° C | 98% | 1009.9 hPa | 0 mm | - | - | - |
| 1778119295 | 3.33° C | 98% | 1010.1 hPa | 0 mm | - | - | - |
| 1778118818 | 3.33° C | 98% | 1009.9 hPa | 0 mm | - | - | - |
| 1778118693 | 3.33° C | 98% | 1009.9 hPa | 0 mm | - | - | - |
| 1778118093 | 3.33° C | 98% | 1010.1 hPa | 0 mm | - | - | - |
| 1778117494 | 3.33° C | 98% | 1010 hPa | 0 mm | - | - | - |
| 1778116893 | 3.89° C | 98% | 1010 hPa | 0 mm | - | - | - |
| 1778116293 | 3.89° C | 98% | 1009.7 hPa | 0 mm | - | - | - |
| 1778115694 | 3.89° C | 98% | 1009.5 hPa | 0 mm | - | - | - |
| 1778115094 | 3.89° C | 98% | 1009.5 hPa | 0 mm | - | - | - |
| 1778114493 | 4.44° C | 98% | 1009.4 hPa | 0 mm | - | - | - |
| 1778113894 | 4.44° C | 98% | 1009.7 hPa | 0 mm | - | - | - |
| 1778113294 | 5° C | 98% | 1009.5 hPa | 0 mm | - | - | - |
| 1778112693 | 5° C | 98% | 1009.5 hPa | 0 mm | - | - | - |
| 1778112094 | 5.56° C | 98% | 1009.3 hPa | 0 mm | - | - | - |
| 1778111493 | 6.11° C | 98% | 1009.3 hPa | 0 mm | - | - | - |
| 1778110894 | 6.67° C | 98% | 1009.4 hPa | 0 mm | - | - | - |
| 1778110293 | 7.22° C | 99% | 1009.3 hPa | 0 mm | - | - | - |
| 1778109693 | 7.22° C | 99% | 1009.2 hPa | 0 mm | - | - | - |
| 1778109094 | 7.78° C | 99% | 1009.1 hPa | 0 mm | - | - | - |
| 1778108495 | 8.33° C | 99% | 1009.1 hPa | 0 mm | - | - | - |
| 1778107894 | 9.44° C | 99% | 1009 hPa | 0 mm | - | - | - |
* Rain latest hour (hover to see other rain measurements)
** Current wind speed in m/s (hover to see current wind gust speed)